Hourly Data Report for June 19, 2017

FISHER BRANCH (AUT)
MANITOBA

51°05'00.100" N
97°33'16.200" W
253.00 m
50309J6
71442
WSZ

Download Data

Hourly Data (June 2017)
Hourly Data Report for June 19, 2017
TIME
LST
Temp Definition
°C
Dew Point Definition
°C
Rel Hum Definition
%
Precip. Amount Definition
mm

Wind Dir Definition
10's deg

Wind Spd Definition
km/h
Visibility Definition
km
Stn Press Definition
kPa
Hmdx Definition


Wind Chill Definition


Weather Definition


00:00 7.9 4.4 79 0.0 30 10   98.07     LegendNANA
01:00 8.5 5.9 84 0.0 31 6   98.07     LegendNANA
02:00 8.9 6.6 85 0.0 30 5   98.06     LegendNANA
03:00 8.3 6.4 88 0.0 28 9   98.08     LegendNANA
04:00 8.0 6.3 89 0.0 30 5   98.12     LegendNANA
05:00 8.0 6.5 90 0.0 29 10   98.16     LegendNANA
06:00 9.0 7.4 89 0.0 30 3   98.18     LegendNANA
07:00 11.6 9.2 86 0.0 29 6   98.22     LegendNANA
08:00 14.2 9.8 74 0.0 33 8   98.23     LegendNANA
09:00 14.8 9.3 70 0.0 1 6   98.27     LegendNANA
10:00 15.7 8.6 63 0.0 33 8   98.27     LegendNANA
11:00 16.3 6.3 52 0.0 32 6   98.25     LegendNANA
12:00 17.4 6.7 49 0.0 32 8   98.24     LegendNANA
13:00 18.8 5.7 42 0.0 30 8   98.21     LegendNANA
14:00 19.3 4.2 37 0.0 16 6   98.17     LegendNANA
15:00 19.8 4.0 35 0.0 27 4   98.16     LegendNANA
16:00 20.3 3.5 33 0.0 33 11   98.15     LegendNANA
17:00 18.9 4.9 40 0.0 33 7   98.12     LegendNANA
18:00 15.6 9.0 65 0.0 29 23   98.17     LegendNANA
19:00 15.1 8.7 65 0.0 32 12   98.16     LegendNANA
20:00 14.8 8.7 67 0.0 29 9   98.15     LegendNANA
21:00 13.2 9.1 76 0.0 30 5   98.18     LegendNANA
22:00 11.3 8.6 83 0.0 30 9   98.25     LegendNANA
23:00 10.0 8.1 88 0.0 29 9   98.29     LegendNANA

Notes on Data Quality.

Legend

  • E = Estimated
  • M = Missing
  • NA = Not Available*
  • [empty] = Indicates an unobserved value
Date modified: